Location: Gdynia
(54.5193°N, 18.5395°E)
Time: 06:48:14
(UTC+01:00)

ISS - Pass Details

Date: 01 February 2019
Orbit: 403 x 411 km, 51.6° (Epoch: 22 February)

Event Time Altitude Azimuth Distance (km) Brightness Sun altitude
Rises 17:18:54 0° 253° (WSW) 2,331 2.6 -8.1°
Reaches altitude 10° 17:21:01 10° 248° (WSW) 1,473 0.7 -8.4°
Maximum altitude 17:24:13 48° 173° (S) 543 -3.1 -8.8°
Enters shadow 17:27:15 11° 98° (E) 1,408 -1.7 -9.3°
